Zurück zum Katalog

FLORIPASAT 1

AktivWissenschaftSSO
NORAD 44885·PAYLOAD·🇧🇷 Brazil
Dieser Satellitenname wurde noch nicht durch offizielle Quellen bestätigt.

Gestartet Dec 20, 2019 von Taiyuan Satellite Launch Center

Loading…

Nächste Überflüge (nächste 24 Stunden)

TLE

AktuellSource: Space-Track

Epoche: Sep 14, 2026, 13:25 UTC

1 44885U 19093G   26257.55966236  .00004072  00000-0  29372-3 0  9994
2 44885  97.7913 352.4933 0012432 124.9044 235.3352 15.04653488366082

Verfolge FLORIPASAT 1 in Echtzeit mit AllMySat

Download on the App Store